Mount Werner, CO

8:06 AM MDT on September 20, 2017 (GMT -0600)
Mount Werner

Weather History for K3MW - October, 2012

Change the Weather History Date:

Monday, October 15, 2012

  Actual Average (KSBS) Record (KSBS)
Temperature  
Mean Temperature 46 °F -  
Max Temperature 50 °F 59 °F 77 °F (1958)
Min Temperature 39 °F 25 °F 5 °F (1952)
Degree Days  
Heating Degree Days 20    
Moisture  
Dew Point 23 °F    
Average Humidity 44    
Maximum Humidity 61    
Minimum Humidity 31    
Precipitation  
Precipitation 0.00 in - - ()
Sea Level Pressure  
Sea Level Pressure 30.15 in    
Wind  
Wind Speed 11 mph (West)    
Max Wind Speed 18 mph    
Max Gust Speed 28 mph    
Visibility 10 miles    
Events      
Averages and records for this station are not official NWS values.
T = Trace of Precipitation, MM = Missing Value Source: NWS Daily Summary

Daily Weather History Graph

Daily Weather History Graph

Search for Another Location

Airport or City:

Trip Planner

Search our weather history database for the weather conditions in past years. The results will help you decide how hot, cold, wet, or windy it might be!

Date:

Astronomy

Oct. 15, 2012 Rise Set
Actual Time 7:18 AM MDT 6:26 PM MDT
Civil Twilight 6:50 AM MDT 6:53 PM MDT
Nautical Twilight 6:19 AM MDT 7:25 PM MDT
Astronomical Twilight 5:47 AM MDT 7:56 PM MDT
Moon 7:32 AM MDT (10/15) 6:27 PM MDT (10/15)
Length of Visible Light 12h 02m
Length of Day
11h 07m
New Moon, 0% of the Moon is Illuminated
Oct 15
New Moon
Oct 21
First Quarter
Oct 29
Full
Nov 6
Last Quarter
Nov 13
New

Hourly Weather History & Observations

Time (MDT) Temp. Windchill Dew Point Humidity Pressure Visibility Wind Dir Wind Speed Gust Speed Precip Events Conditions
10:35 AM 41.0 °F 38.0 °F 28.4 °F 61% 30.23 in 10.0 mi WSW 4.6 mph - N/A   Clear
10:55 AM 41.0 °F 35.8 °F 26.6 °F 57% 30.23 in 10.0 mi West 8.1 mph - N/A   Clear
11:15 AM 42.8 °F 38.0 °F 26.6 °F 53% 30.23 in 10.0 mi West 8.1 mph - N/A   Clear
11:17 AM 42.8 °F 38.6 °F 26.6 °F 53% 30.22 in 10.0 mi West 6.9 mph - N/A   Clear
11:23 AM 42.8 °F 38.0 °F 26.6 °F 53% 30.22 in 10.0 mi WSW 8.1 mph - N/A   Clear
11:25 AM 42.8 °F 37.5 °F 26.6 °F 53% 30.22 in 10.0 mi WSW 9.2 mph - N/A   Clear
11:35 AM 42.8 °F 37.5 °F 28.4 °F 57% 30.22 in 10.0 mi West 9.2 mph - N/A   Clear
11:55 AM 42.8 °F 37.5 °F 28.4 °F 57% 30.23 in 10.0 mi WSW 9.2 mph - N/A   Clear
12:15 PM 42.8 °F 36.6 °F 26.6 °F 53% 30.23 in 10.0 mi WSW 11.5 mph 16.1 mph N/A   Clear
12:35 PM 44.6 °F 38.4 °F 21.2 °F 39% 30.22 in 10.0 mi WSW 12.7 mph 24.2 mph N/A   Clear
12:55 PM 44.6 °F 38.8 °F 23.0 °F 43% 30.21 in 10.0 mi West 11.5 mph 26.5 mph N/A   Clear
1:15 PM 44.6 °F 38.4 °F 24.8 °F 46% 30.20 in 10.0 mi West 12.7 mph 18.4 mph N/A   Clear
1:35 PM 44.6 °F 39.2 °F 26.6 °F 49% 30.19 in 10.0 mi West 10.4 mph 18.4 mph N/A   Clear
1:55 PM 44.6 °F 39.7 °F 26.6 °F 49% 30.18 in 10.0 mi WNW 9.2 mph 18.4 mph N/A   Clear
2:15 PM 44.6 °F 38.4 °F 28.4 °F 53% 30.17 in 10.0 mi West 12.7 mph 19.6 mph N/A   Clear
2:35 PM 44.6 °F 37.8 °F 28.4 °F 53% 30.17 in 10.0 mi West 15.0 mph 18.4 mph N/A   Clear
2:55 PM 46.4 °F 40.4 °F 26.6 °F 46% 30.16 in 10.0 mi West 13.8 mph 20.7 mph N/A   Clear
3:15 PM 46.4 °F 41.1 °F 26.6 °F 46% 30.16 in 10.0 mi West 11.5 mph 18.4 mph N/A   Clear
3:35 PM 48.2 °F - 24.8 °F 40% 30.15 in 10.0 mi West 10.4 mph 19.6 mph N/A   Clear
3:55 PM 50.0 °F - 23.0 °F 35% 30.15 in 10.0 mi West 12.7 mph 20.7 mph N/A   Clear
4:15 PM 48.2 °F - 23.0 °F 37% 30.13 in 10.0 mi West 17.3 mph 23.0 mph N/A   Clear
4:35 PM 46.4 °F 39.5 °F 23.0 °F 40% 30.13 in 10.0 mi West 17.3 mph 23.0 mph N/A   Clear
4:55 PM 46.4 °F 39.2 °F 23.0 °F 40% 30.13 in 10.0 mi West 18.4 mph 25.3 mph N/A   Clear
5:15 PM 46.4 °F 39.8 °F 23.0 °F 40% 30.12 in 10.0 mi West 16.1 mph 24.2 mph N/A   Clear
5:35 PM 46.4 °F 40.1 °F 19.4 °F 34% 30.11 in 10.0 mi West 15.0 mph 21.9 mph N/A   Clear
5:55 PM 46.4 °F 39.8 °F 17.6 °F 32% 30.11 in 10.0 mi West 16.1 mph 21.9 mph N/A   Clear
6:15 PM 44.6 °F 38.4 °F 17.6 °F 34% 30.11 in 10.0 mi WNW 12.7 mph 19.6 mph N/A   Clear
6:35 PM 44.6 °F 38.1 °F 15.8 °F 31% 30.12 in 10.0 mi WNW 13.8 mph - N/A   Clear
6:55 PM 42.8 °F 36.2 °F 17.6 °F 36% 30.12 in 10.0 mi WNW 12.7 mph 21.9 mph N/A   Clear
7:15 PM 42.8 °F 35.4 °F 17.6 °F 36% 30.12 in 10.0 mi WNW 15.0 mph 20.7 mph N/A   Scattered Clouds
7:35 PM 42.8 °F 35.4 °F 17.6 °F 36% 30.12 in 10.0 mi West 15.0 mph 24.2 mph N/A   Mostly Cloudy
7:55 PM 42.8 °F 35.1 °F 17.6 °F 36% 30.13 in 10.0 mi West 16.1 mph 24.2 mph N/A   Overcast
8:15 PM 42.8 °F 35.8 °F 17.6 °F 36% 30.13 in 10.0 mi West 13.8 mph 21.9 mph N/A   Overcast
8:35 PM 42.8 °F 35.8 °F 19.4 °F 39% 30.12 in 10.0 mi West 13.8 mph 27.6 mph N/A   Scattered Clouds
8:55 PM 42.8 °F 35.8 °F 19.4 °F 39% 30.12 in 10.0 mi West 13.8 mph 19.6 mph N/A   Clear
9:15 PM 41.0 °F 33.1 °F 19.4 °F 42% 30.12 in 10.0 mi West 15.0 mph 21.9 mph N/A   Scattered Clouds
9:35 PM 41.0 °F 33.5 °F 19.4 °F 42% 30.11 in 10.0 mi West 13.8 mph - N/A   Clear
9:55 PM 41.0 °F 33.5 °F 21.2 °F 45% 30.11 in 10.0 mi West 13.8 mph - N/A   Clear
10:15 PM 41.0 °F 32.8 °F 21.2 °F 45% 30.10 in 10.0 mi West 16.1 mph 20.7 mph N/A   Clear
10:35 PM 41.0 °F 32.8 °F 21.2 °F 45% 30.10 in 10.0 mi West 16.1 mph 25.3 mph N/A   Clear
10:55 PM 41.0 °F 33.1 °F 21.2 °F 45% 30.10 in 10.0 mi West 15.0 mph 25.3 mph N/A   Clear
11:15 PM 41.0 °F 32.8 °F 21.2 °F 45% 30.10 in 10.0 mi West 16.1 mph - N/A   Clear
11:35 PM 41.0 °F 32.5 °F 21.2 °F 45% 30.09 in 10.0 mi West 17.3 mph 21.9 mph N/A   Scattered Clouds
11:55 PM 39.2 °F 30.8 °F 23.0 °F 52% 30.10 in 10.0 mi West 15.0 mph 21.9 mph N/A   Mostly Cloudy